Location: Northern Prairie Star Party
(53.2167°N, 112.5333°W)
Time: 06:37:46
(UTC-06:00)

Amateur Radio Satellites - All Passes

Search period start: 31 March 2015 06:07
Search period end: 01 April 2015 06:07
Location: Northern Prairie Star Party, 53.2167°N, 112.5333°W

Satellite Date Start Highest point End Downlink Frequencies (MHz)
Time Altitude Azimuth
CUTE-I 31 Mar 06:19:49 06:21:34 12° 81° (E) 06:23:35 437.470
Cubesat XI-IV 31 Mar 06:20:27 06:22:22 12° 81° (E) 06:24:33 437.490
JAS-2 31 Mar 06:22:59 06:30:54 82° 289° (WNW) 06:38:14 435.910
Gurwin Techsat 1B 31 Mar 06:23:34 06:27:01 17° 309° (NW) 06:30:18 435.225
RS-15 31 Mar 06:24:17 06:33:52 31° 253° (WSW) 06:43:27 29.354- 29.394
AO-7 31 Mar 06:26:48 06:35:10 88° 292° (WNW) 06:43:29 29.400- 29.500
AIST 1 31 Mar 06:36:54 06:40:04 19° 299° (WNW) 06:43:08
GONETS M04 31 Mar 06:37:58 06:46:42 61° 71° (ENE) 06:55:28
O/OREOS (USA 219) 31 Mar 06:57:07 07:00:47 22° 320° (NW) 07:04:23 437.305
CUSAT 1 31 Mar 06:58:00 07:00:56 20° 65° (ENE) 07:04:34 437.405
AUBIESAT-1 31 Mar 07:12:06 07:14:27 14° 270° (W) 07:16:44 437.475
STRAND 1 31 Mar 07:19:01 07:24:10 85° 70° (ENE) 07:29:22 437.568
HORYU 2 31 Mar 07:19:08 07:21:32 14° 307° (NW) 07:23:48 437.375
PRISM 31 Mar 07:22:33 07:26:44 61° 258° (WSW) 07:30:57 437.425
CUBESAT XI-V 31 Mar 07:23:09 07:27:48 57° 260° (W) 07:32:27 437.345
CUTE-I 31 Mar 07:57:32 08:02:51 65° 102° (ESE) 08:08:09 437.470
Cubesat XI-IV 31 Mar 07:58:19 08:03:39 66° 102° (ESE) 08:08:58 437.490
DANDE 31 Mar 07:59:04 08:02:38 45° 73° (ENE) 08:07:23 436.750
JAS-2 31 Mar 08:08:39 08:14:58 27° 311° (NW) 08:20:54 435.910
AO-7 31 Mar 08:20:10 08:27:10 31° 315° (NW) 08:34:02 29.400- 29.500
GONETS M04 31 Mar 08:35:15 08:43:21 42° 274° (W) 08:51:21
CUSAT 1 31 Mar 08:39:54 08:43:53 61° 259° (W) 08:49:11 437.405
STRAND 1 31 Mar 09:00:36 09:04:07 18° 274° (W) 09:07:29 437.568
GOMX 1 31 Mar 09:04:13 09:06:34 15° 87° (E) 09:09:07 467.674
UNISAT 6 31 Mar 09:09:38 09:10:31 11° 50° (NE) 09:11:35 437.425
TIGRISAT 31 Mar 09:18:04 09:19:41 12° 52° (NE) 09:21:29 435.000
PHONESAT 2.4 31 Mar 09:30:02 09:30:11 10° 188° (S) 09:30:19 2401.200-2431.200
CANX-2 31 Mar 09:33:40 09:37:14 25° 92° (E) 09:40:50 2200.000
CUTE-I 31 Mar 09:38:10 09:42:36 27° 302° (WNW) 09:46:58 437.470
QB50P2 31 Mar 09:38:37 09:39:33 11° 52° (NE) 09:40:39 145.880/145.840
Cubesat XI-IV 31 Mar 09:39:00 09:43:25 27° 303° (WNW) 09:47:44 437.490
DANDE 31 Mar 09:42:46 09:45:52 22° 264° (W) 09:49:36 436.750
CINEMA 3 31 Mar 09:44:59 09:47:27 15° 86° (E) 09:50:07 145.822/145.860
CUTE 1.7 + AOD 2 31 Mar 09:47:08 09:50:57 30° 94° (E) 09:54:47 437.475
ANTELSAT 31 Mar 09:47:36 09:50:46 21° 59° (ENE) 09:54:04 437.575/2403.000
BUGSAT 1 31 Mar 09:55:01 09:55:53 11° 52° (NE) 09:56:55 437.445
HO-68 31 Mar 09:55:36 10:02:25 43° 97° (E) 10:09:15 435.675
JAS-2 31 Mar 09:55:55 09:57:31 11° 334° (NNW) 09:58:52 435.910
AAUSAT CUBESAT 2 31 Mar 10:03:45 10:07:24 27° 93° (E) 10:11:03 437.432
POPSAT HIP 1 31 Mar 10:04:53 10:07:33 17° 57° (ENE) 10:10:20 437.405
BRITE-PL 31 Mar 10:05:02 10:09:13 71° 102° (ESE) 10:13:33 437.365/2234.400
SEEDS 31 Mar 10:13:07 10:17:15 44° 98° (E) 10:21:22 437.485
AO-7 31 Mar 10:13:29 10:17:28 14° 341° (NNW) 10:21:18 29.400- 29.500
NANOSAT C BR1 31 Mar 10:14:11 10:17:12 20° 59° (ENE) 10:20:18 145.865
DOVE 4 31 Mar 10:19:44 10:23:55 49° 99° (E) 10:28:18 437.250
POLYITAN 1 31 Mar 10:20:05 10:23:20 22° 60° (ENE) 10:26:39 437.675
BEESAT 3 31 Mar 10:26:14 10:29:21 22° 118° (ESE) 10:32:35 437.485
DX 1 31 Mar 10:30:47 10:32:09 11° 84° (E) 10:33:43 434.975-435.025
COMPASS 1 31 Mar 10:32:19 10:36:32 56° 100° (E) 10:40:43 437.405
GOMX 1 31 Mar 10:41:04 10:45:19 79° 287° (WNW) 10:49:45 467.674
UNISAT 6 31 Mar 10:42:15 10:46:27 56° 70° (ENE) 10:50:46 437.425
Oscar 11 31 Mar 10:44:36 10:48:37 34° 95° (E) 10:52:38 145.826/435.025
TIGRISAT 31 Mar 10:51:26 10:55:41 66° 72° (ENE) 11:00:02 435.000
QB50P1 31 Mar 10:55:08 10:59:06 42° 68° (ENE) 11:03:07 145.935-145.965
DUCHIFAT 1 31 Mar 10:55:44 10:59:42 42° 67° (ENE) 11:03:42 145.980
FUNcube-1 31 Mar 10:59:23 11:03:10 28° 93° (E) 11:07:02 145.935
DELFI C3 31 Mar 11:05:24 11:09:20 42° 97° (E) 11:13:15 145.870
UWE-3 31 Mar 11:09:06 11:13:15 40° 97° (E) 11:17:32 435.000/436.395/437.385
CANX-2 31 Mar 11:09:14 11:13:24 46° 291° (WNW) 11:17:33 2200.000
QB50P2 31 Mar 11:10:31 11:14:41 59° 70° (ENE) 11:18:52 145.880/145.840
ZACube-1 31 Mar 11:12:57 11:17:01 37° 96° (E) 11:21:11 437.345
AIST 2 31 Mar 11:15:54 11:19:10 22° 117° (ESE) 11:22:33 435.215
VELOX 1 31 Mar 11:18:19 11:20:59 16° 87° (E) 11:23:48 145.980
CUBEBUG 2 31 Mar 11:18:33 11:22:54 58° 101° (E) 11:27:23 437.445
CINEMA 3 31 Mar 11:20:53 11:25:17 83° 287° (WNW) 11:29:51 145.822/145.860
ANTELSAT 31 Mar 11:22:55 11:27:11 64° 258° (WSW) 11:31:34 437.575/2403.000
CUTE 1.7 + AOD 2 31 Mar 11:22:57 11:26:59 38° 293° (WNW) 11:30:59 437.475
AISAT 31 Mar 11:23:42 11:26:44 18° 89° (E) 11:29:51 437.250
BUGSAT 1 31 Mar 11:26:34 11:30:39 62° 72° (ENE) 11:34:43 437.445
BEESAT 2 31 Mar 11:28:27 11:32:31 60° 129° (SE) 11:36:39 435.950
POPSAT HIP 1 31 Mar 11:38:46 11:42:59 78° 256° (WSW) 11:47:13 437.405
AAUSAT CUBESAT 2 31 Mar 11:39:10 11:43:11 41° 292° (WNW) 11:47:09 437.432
HO-68 31 Mar 11:43:24 11:50:23 54° 299° (WNW) 11:57:18 435.675
BRITE-PL 31 Mar 11:44:35 11:47:24 17° 301° (WNW) 11:50:11 437.365/2234.400
HUMSAT D 31 Mar 11:46:51 11:50:53 41° 97° (E) 11:54:58 437.325/437.525
NANOSAT C BR1 31 Mar 11:48:31 11:52:42 63° 258° (WSW) 11:56:54 145.865
SEEDS 31 Mar 11:49:15 11:52:55 27° 297° (WNW) 11:56:31 437.485
UKube-1 31 Mar 11:51:45 11:56:03 57° 102° (ESE) 12:00:18 .
POLYITAN 1 31 Mar 11:54:50 11:58:59 54° 259° (W) 12:03:09 437.675
DOVE 4 31 Mar 11:58:01 12:01:33 25° 297° (WNW) 12:05:08 437.250
ESTCUBE 1 31 Mar 12:00:11 12:03:44 22° 91° (E) 12:07:19 437.505/2401.250
O/OREOS (USA 219) 31 Mar 12:02:08 12:05:15 18° 35° (NE) 12:08:25 437.305
BEESAT 3 31 Mar 12:02:56 12:07:04 69° 317° (NW) 12:11:14 437.485
AO-7 31 Mar 12:03:47 12:06:46 12° 10° (N) 12:09:51 29.400- 29.500
DX 1 31 Mar 12:04:51 12:09:14 79° 105° (ESE) 12:13:35 434.975-435.025
50 SAT 31 Mar 12:08:10 12:12:03 45° 99° (E) 12:15:58 437.505
COMPASS 1 31 Mar 12:08:36 12:11:57 22° 299° (WNW) 12:15:13 437.405
Oscar 19 31 Mar 12:19:27 12:23:01 20° 54° (NE) 12:26:43 437.125/150
UNISAT 6 31 Mar 12:20:21 12:23:40 21° 271° (W) 12:26:56 437.425
Oscar 11 31 Mar 12:20:49 12:24:49 34° 295° (WNW) 12:28:45 145.826/435.025
GOMX 1 31 Mar 12:20:50 12:22:54 13° 305° (NW) 12:24:53 467.674
TIGRISAT 31 Mar 12:30:00 12:32:58 18° 272° (W) 12:35:53 435.000
QB50P1 31 Mar 12:31:35 12:35:10 26° 267° (W) 12:38:44 145.935-145.965
DUCHIFAT 1 31 Mar 12:32:08 12:35:43 26° 267° (W) 12:39:16 145.980
FUNcube-1 31 Mar 12:35:31 12:39:40 43° 292° (WNW) 12:43:52 145.935
DELFI C3 31 Mar 12:40:52 12:44:21 26° 297° (WNW) 12:47:47 145.870
UWE-3 31 Mar 12:45:52 12:49:44 30° 296° (WNW) 12:53:38 435.000/436.395/437.385
CUBEBUG 1 31 Mar 12:47:16 12:51:31 50° 100° (E) 12:55:45 437.445
QB50P2 31 Mar 12:47:55 12:51:00 19° 270° (W) 12:54:00 145.880/145.840
SPROUT 31 Mar 12:48:26 12:51:20 18° 88° (E) 12:54:19 437.525
ZACube-1 31 Mar 12:49:27 12:53:22 33° 295° (WNW) 12:57:20 437.345
AIST 2 31 Mar 12:53:07 12:57:25 71° 317° (NW) 13:01:44 435.215
VELOX 1 31 Mar 12:53:44 12:58:10 77° 288° (WNW) 13:02:34 145.980
Gurwin Techsat 1B 31 Mar 12:53:46 12:56:20 14° 48° (NE) 12:59:03 435.225
CUBEBUG 2 31 Mar 12:55:51 12:59:20 23° 299° (WNW) 13:02:49 437.445
AISAT 31 Mar 12:59:27 13:03:50 67° 289° (WNW) 13:08:13 437.250
CINEMA 3 31 Mar 12:59:28 13:01:57 15° 304° (NW) 13:04:21 145.822/145.860
BUGSAT 1 31 Mar 13:03:42 13:06:34 18° 271° (W) 13:09:20 437.445
BEESAT 2 31 Mar 13:07:08 13:10:56 32° 330° (NNW) 13:14:44 435.950
JAS-2 31 Mar 13:18:27 13:20:25 11° 27° (NNE) 13:22:38 435.910
POPSAT HIP 1 31 Mar 13:18:33 13:19:42 11° 277° (W) 13:20:40 437.405
HUMSAT D 31 Mar 13:22:53 13:26:33 28° 296° (WNW) 13:30:12 437.325/437.525
UKube-1 31 Mar 13:28:29 13:31:54 22° 301° (WNW) 13:35:14 .
ITAMSAT 1 31 Mar 13:29:04 13:33:18 26° 58° (ENE) 13:37:37 435.822/435.867
HO-68 31 Mar 13:32:09 13:36:44 18° 321° (NW) 13:41:09 435.675
YUBILEINY 31 Mar 13:33:19 13:41:06 38° 84° (E) 13:49:04 435.215
ESTCUBE 1 31 Mar 13:36:31 13:40:58 56° 291° (WNW) 13:45:23 437.505/2401.250
O/OREOS (USA 219) 31 Mar 13:40:56 13:45:32 74° 58° (ENE) 13:50:04 437.305
DX 1 31 Mar 13:42:04 13:45:01 18° 304° (WNW) 13:47:51 434.975-435.025
BEESAT 3 31 Mar 13:42:28 13:45:48 22° 339° (NNW) 13:49:07 437.485
50 SAT 31 Mar 13:43:28 13:46:47 24° 297° (WNW) 13:50:03 437.505
AO-7 31 Mar 13:50:38 13:56:39 24° 37° (NE) 14:02:50 29.400- 29.500
Oscar 19 31 Mar 13:56:40 14:01:48 88° 251° (WSW) 14:07:00 437.125/150
TISAT 1 31 Mar 14:04:49 14:09:03 73° 103° (ESE) 14:13:14 437.305
SWISSCUBE 31 Mar 14:17:40 14:21:26 23° 90° (E) 14:25:17 437.505
BEESAT 31 Mar 14:20:13 14:23:58 23° 90° (E) 14:27:47 436.000
SPROUT 31 Mar 14:23:38 14:27:54 65° 288° (WNW) 14:32:09 437.525
CUBEBUG 1 31 Mar 14:24:06 14:27:41 25° 299° (WNW) 14:31:09 437.445
Gurwin Techsat 1B 31 Mar 14:30:09 14:35:22 58° 68° (ENE) 14:40:36 435.225
VELOX 1 31 Mar 14:31:43 14:34:05 14° 307° (NW) 14:36:19 145.980
AIST 2 31 Mar 14:33:10 14:36:42 24° 339° (NNW) 14:40:13 435.215
AISAT 31 Mar 14:37:45 14:39:42 13° 308° (NW) 14:41:32 437.250
BEESAT 2 31 Mar 14:47:22 14:50:12 17° 353° (N) 14:53:02 435.950
JAS-2 31 Mar 14:57:00 15:03:04 29° 51° (NE) 15:09:34 435.910
AIST 1 31 Mar 14:58:27 15:02:24 33° 69° (ENE) 15:06:20
ITAMSAT 1 31 Mar 15:07:17 15:12:29 65° 257° (WSW) 15:17:42 435.822/435.867
ITUPSAT 1 31 Mar 15:08:05 15:12:49 54° 100° (E) 15:17:31 437.325
HORYU 2 31 Mar 15:09:23 15:13:22 34° 64° (ENE) 15:17:26 437.375
ESTCUBE 1 31 Mar 15:15:34 15:16:59 11° 310° (NW) 15:18:14 437.505/2401.250
O/OREOS (USA 219) 31 Mar 15:21:19 15:24:28 18° 258° (WSW) 15:27:29 437.305
PCSat 31 Mar 15:22:18 15:27:26 45° 119° (ESE) 15:32:37 145.827
BEESAT 3 31 Mar 15:22:27 15:25:10 17° 3° (N) 15:27:53 437.485
KKS-1 31 Mar 15:28:05 15:31:25 21° 90° (E) 15:34:50 437.445
YUBILEINY 31 Mar 15:28:47 15:37:34 66° 287° (WNW) 15:46:24 435.215
Oscar 19 31 Mar 15:38:47 15:42:00 16° 275° (W) 15:45:04 437.125/150
AO-7 31 Mar 15:39:59 15:48:07 63° 61° (ENE) 15:56:17 29.400- 29.500
TISAT 1 31 Mar 15:41:32 15:44:24 18° 302° (WNW) 15:47:11 437.305
STARS 31 Mar 15:54:23 15:57:58 24° 92° (E) 16:01:35 437.465
SWISSCUBE 31 Mar 15:54:58 15:59:43 59° 291° (WNW) 16:04:25 437.505
BEESAT 31 Mar 15:57:30 16:02:15 61° 291° (WNW) 16:06:57 436.000
SPROUT 31 Mar 16:01:37 16:03:15 12° 308° (NW) 16:04:45 437.525
Gurwin Techsat 1B 31 Mar 16:11:11 16:15:44 28° 269° (W) 16:20:14 435.225
AIST 2 31 Mar 16:13:41 16:16:38 18° 3° (N) 16:19:34 435.215
BEESAT 2 31 Mar 16:26:33 16:29:43 20° 17° (NNE) 16:32:52 435.950
AIST 1 31 Mar 16:36:11 16:40:04 32° 269° (W) 16:43:51
JAS-2 31 Mar 16:39:58 16:47:15 88° 74° (ENE) 16:55:09 435.910
HORYU 2 31 Mar 16:45:52 16:50:01 37° 263° (W) 16:54:11 437.375
ITUPSAT 1 31 Mar 16:46:25 16:50:29 27° 300° (WNW) 16:54:28 437.325
ITAMSAT 1 31 Mar 16:51:16 16:53:09 12° 279° (W) 16:54:45 435.822/435.867
BEESAT 3 31 Mar 17:00:51 17:04:26 27° 26° (NNE) 17:08:01 437.485
KKS-1 31 Mar 17:04:05 17:08:29 59° 290° (WNW) 17:12:52 437.445
PCSat 31 Mar 17:05:39 17:10:55 47° 320° (NW) 17:16:11 145.827
MOZHAYETS 4 31 Mar 17:20:07 17:23:36 21° 89° (E) 17:27:10
YUBILEINY 31 Mar 17:30:04 17:36:34 21° 315° (NW) 17:42:51 435.215
STARS 31 Mar 17:30:26 17:34:43 50° 291° (WNW) 17:38:58 437.465
AO-7 31 Mar 17:33:37 17:41:23 41° 264° (W) 17:49:06 29.400- 29.500
SWISSCUBE 31 Mar 17:34:34 17:36:43 13° 311° (NW) 17:38:43 437.505
BEESAT 31 Mar 17:37:02 17:39:15 13° 310° (NW) 17:41:19 436.000
CUTE-I 31 Mar 17:46:31 17:51:22 37° 62° (ENE) 17:56:16 437.470
Cubesat XI-IV 31 Mar 17:47:24 17:52:17 37° 62° (ENE) 17:57:14 437.490
AIST 2 31 Mar 17:52:43 17:56:28 28° 26° (NNE) 18:00:12 435.215
GONETS M04 31 Mar 17:56:41 18:00:11 13° 67° (ENE) 18:04:11
BEESAT 2 31 Mar 18:04:35 18:08:42 53° 39° (NE) 18:12:45 435.950
JAS-2 31 Mar 18:27:24 18:33:23 26° 277° (W) 18:39:33 435.910
BEESAT 3 31 Mar 18:38:46 18:42:56 81° 229° (SW) 18:47:02 437.485
KKS-1 31 Mar 18:42:45 18:44:19 12° 309° (NW) 18:45:44 437.445
RS-15 31 Mar 18:44:20 18:53:06 31° 106° (ESE) 19:02:19 29.354- 29.394
AUBIESAT-1 31 Mar 18:44:43 18:49:03 32° 100° (E) 18:53:19 437.475
HO-68 31 Mar 18:46:07 18:50:54 20° 41° (NE) 18:55:52 435.675
PCSat 31 Mar 18:51:26 18:55:37 22° 345° (NNW) 18:59:46 145.827
MOZHAYETS 4 31 Mar 18:56:39 19:01:18 63° 289° (WNW) 19:05:52
PRISM 31 Mar 19:00:33 19:02:25 13° 85° (E) 19:04:26 437.425
M-CUBED/EXP-1 PRIME 31 Mar 19:11:08 19:15:57 57° 106° (ESE) 19:20:41 437.505
CUBESAT XI-V 31 Mar 19:14:00 19:17:46 24° 90° (E) 19:21:34 437.345
STRAND 1 31 Mar 19:24:09 19:27:35 18° 87° (E) 19:31:09 437.568
CUTE-I 31 Mar 19:26:15 19:31:24 45° 262° (W) 19:36:33 437.470
Cubesat XI-IV 31 Mar 19:27:13 19:32:22 44° 262° (W) 19:37:31 437.490
AIST 2 31 Mar 19:31:12 19:35:30 80° 230° (SW) 19:39:44 435.215
SEEDS 31 Mar 19:38:39 19:40:14 12° 53° (NE) 19:41:58 437.485
BEESAT 2 31 Mar 19:43:02 19:46:40 29° 239° (WSW) 19:50:14 435.950
BRITE-PL 31 Mar 19:44:57 19:48:30 24° 62° (ENE) 19:51:58 437.365/2234.400
GONETS M04 31 Mar 19:46:45 19:55:05 54° 90° (E) 20:03:33
SO-50 31 Mar 19:48:00 19:52:35 54° 126° (SE) 19:57:20 436.795
DOVE 4 31 Mar 19:56:21 19:58:48 16° 57° (ENE) 20:01:21 437.250
COMPASS 1 31 Mar 19:56:26 19:58:39 14° 55° (NE) 20:00:59 437.405
Oscar 11 31 Mar 20:13:05 20:14:06 11° 51° (NE) 20:15:18 145.826/435.025
BEESAT 3 31 Mar 20:18:12 20:20:23 14° 247° (WSW) 20:22:25 437.485
GOMX 1 31 Mar 20:18:17 20:22:04 31° 65° (ENE) 20:25:48 467.674
AUBIESAT-1 31 Mar 20:19:21 20:24:01 48° 299° (WNW) 20:28:36 437.475
DELFI C3 31 Mar 20:27:50 20:28:35 10° 52° (NE) 20:29:29 145.870
HO-68 31 Mar 20:30:24 20:37:25 61° 64° (ENE) 20:44:31 435.675
CANX-2 31 Mar 20:32:32 20:36:28 38° 67° (ENE) 20:40:29 2200.000
PRISM 31 Mar 20:34:22 20:38:36 88° 286° (WNW) 20:42:46 437.425
MOZHAYETS 4 31 Mar 20:35:37 20:37:42 13° 309° (NW) 20:39:39
PCSat 31 Mar 20:36:55 20:40:54 20° 11° (N) 20:44:55 145.827
UWE-3 31 Mar 20:39:19 20:40:47 12° 53° (NE) 20:42:25 435.000/436.395/437.385
ZACube-1 31 Mar 20:42:41 20:43:37 11° 52° (NE) 20:44:42 437.345
CUTE 1.7 + AOD 2 31 Mar 20:45:55 20:49:59 46° 69° (ENE) 20:54:08 437.475
M-CUBED/EXP-1 PRIME 31 Mar 20:46:22 20:50:35 30° 305° (NW) 20:54:43 437.505
CUBEBUG 2 31 Mar 20:48:37 20:51:07 16° 57° (ENE) 20:53:45 437.445
CUBESAT XI-V 31 Mar 20:51:00 20:55:33 53° 291° (WNW) 21:00:02 437.345
CINEMA 3 31 Mar 20:52:52 20:56:20 26° 63° (ENE) 20:59:52 145.822/145.860
RS-15 31 Mar 20:53:12 21:04:08 86° 131° (SE) 21:15:26 29.354- 29.394
AAUSAT CUBESAT 2 31 Mar 21:00:32 21:04:28 41° 68° (ENE) 21:08:28 437.432
STRAND 1 31 Mar 21:02:21 21:07:30 81° 289° (WNW) 21:12:37 437.568
SEEDS 31 Mar 21:11:07 21:15:19 68° 73° (ENE) 21:19:34 437.485
AIST 2 31 Mar 21:11:09 21:13:29 14° 247° (WSW) 21:15:39 435.215
HUMSAT D 31 Mar 21:12:37 21:13:47 11° 53° (NE) 21:15:05 437.325/437.525
UKube-1 31 Mar 21:18:18 21:21:14 18° 57° (ENE) 21:24:15 .
DANDE 31 Mar 21:21:05 21:23:09 20° 95° (E) 21:25:14 436.750
BRITE-PL 31 Mar 21:22:29 21:26:53 49° 260° (W) 21:31:03 437.365/2234.400
SO-50 31 Mar 21:28:48 21:33:19 41° 329° (NNW) 21:37:58 436.795
50 SAT 31 Mar 21:29:13 21:29:46 10° 53° (NE) 21:30:27 437.505
COMPASS 1 31 Mar 21:29:32 21:33:45 85° 75° (ENE) 21:38:01 437.405
DX 1 31 Mar 21:31:24 21:34:52 24° 60° (ENE) 21:38:23 434.975-435.025
DOVE 4 31 Mar 21:31:53 21:36:08 81° 257° (WSW) 21:40:19 437.250
YUBILEINY 31 Mar 21:39:47 21:40:50 10° 22° (NNE) 21:42:10 435.215
GONETS M04 31 Mar 21:43:49 21:52:12 47° 294° (WNW) 22:00:37
Oscar 11 31 Mar 21:45:13 21:49:27 58° 71° (ENE) 21:53:46 145.826/435.025
AUBIESAT-1 31 Mar 21:55:46 21:57:51 13° 318° (NW) 21:59:50 437.475
GOMX 1 31 Mar 21:56:14 22:00:14 35° 264° (W) 22:04:07 467.674
CUSAT 1 31 Mar 21:57:30 22:00:06 80° 284° (WNW) 22:02:47 437.405
DELFI C3 31 Mar 21:58:57 22:02:59 61° 72° (ENE) 22:07:03 145.870
FUNcube-1 31 Mar 22:01:20 22:05:17 45° 68° (ENE) 22:09:20 145.935
CANX-2 31 Mar 22:08:46 22:12:32 29° 267° (W) 22:16:17 2200.000
PRISM 31 Mar 22:11:07 22:13:31 15° 305° (NW) 22:15:47 437.425
UWE-3 31 Mar 22:12:29 22:16:37 69° 72° (ENE) 22:20:49 435.000/436.395/437.385
ZACube-1 31 Mar 22:15:06 22:19:12 61° 72° (ENE) 22:23:23 437.345
CUBEBUG 1 31 Mar 22:15:17 22:17:54 16° 56° (NE) 22:20:39 437.445
HO-68 31 Mar 22:18:59 22:25:35 37° 266° (W) 22:32:09 435.675
PCSat 31 Mar 22:20:40 22:25:47 39° 35° (NE) 22:30:53 145.827
VELOX 1 31 Mar 22:21:35 22:25:29 31° 63° (ENE) 22:29:25 145.980
CUTE 1.7 + AOD 2 31 Mar 22:22:38 22:26:10 24° 269° (W) 22:29:40 437.475
CUBEBUG 2 31 Mar 22:23:10 22:27:19 81° 256° (WSW) 22:31:33 437.445
AISAT 31 Mar 22:27:17 22:31:20 35° 65° (ENE) 22:35:23 437.250
CINEMA 3 31 Mar 22:29:29 22:33:27 41° 262° (W) 22:37:25 145.822/145.860
CUBESAT XI-V 31 Mar 22:30:46 22:32:05 11° 311° (NW) 22:33:13 437.345
AAUSAT CUBESAT 2 31 Mar 22:36:40 22:40:16 27° 267° (W) 22:43:52 437.432
STRAND 1 31 Mar 22:42:37 22:46:03 18° 308° (NW) 22:49:19 437.568
HUMSAT D 31 Mar 22:44:44 22:48:48 65° 72° (ENE) 22:52:56 437.325/437.525
SEEDS 31 Mar 22:48:48 22:51:39 17° 273° (W) 22:54:23 437.485
UKube-1 31 Mar 22:52:35 22:56:56 76° 256° (WSW) 23:01:18 .
50 SAT 31 Mar 23:00:02 23:03:55 63° 72° (ENE) 23:07:52 437.505
DANDE 31 Mar 23:04:42 23:06:28 16° 296° (WNW) 23:08:11 436.750
ESTCUBE 1 31 Mar 23:05:35 23:09:53 43° 67° (ENE) 23:14:13 437.505/2401.250
DX 1 31 Mar 23:06:34 23:10:51 54° 259° (WSW) 23:15:10 434.975-435.025
RS-15 31 Mar 23:06:59 23:17:41 52° 342° (NNW) 23:28:48 29.354- 29.394
COMPASS 1 31 Mar 23:07:55 23:10:08 14° 275° (W) 23:12:11 437.405
ANTELSAT 31 Mar 23:09:08 23:12:21 19° 88° (E) 23:15:43 437.575/2403.000
SO-50 31 Mar 23:11:11 23:15:02 22° 353° (N) 23:18:55 436.795
DOVE 4 31 Mar 23:13:36 23:14:44 11° 276° (W) 23:15:39 437.250
POPSAT HIP 1 31 Mar 23:19:45 23:21:12 12° 84° (E) 23:22:51 437.405
Oscar 11 31 Mar 23:22:44 23:26:02 20° 271° (W) 23:29:16 145.826/435.025
NANOSAT C BR1 31 Mar 23:28:35 23:30:49 14° 86° (E) 23:33:12 145.865
TISAT 1 31 Mar 23:28:54 23:31:51 19° 59° (ENE) 23:34:52 437.305
YUBILEINY 31 Mar 23:34:27 23:41:48 29° 53° (NE) 23:49:17 435.215
POLYITAN 1 31 Mar 23:34:59 23:37:41 17° 88° (E) 23:40:31 437.675
DELFI C3 31 Mar 23:35:43 23:38:35 18° 271° (W) 23:41:22 145.870
FUNcube-1 31 Mar 23:38:27 23:41:53 24° 268° (W) 23:45:17 145.935
GONETS M04 31 Mar 23:46:56 23:52:00 16° 323° (NW) 23:56:47
SPROUT 31 Mar 23:48:24 23:52:08 30° 64° (ENE) 23:55:55 437.525
CUBEBUG 1 31 Mar 23:49:19 23:53:44 89° 254° (WSW) 23:58:09 437.445
UWE-3 31 Mar 23:51:04 23:53:44 16° 273° (W) 23:56:17 435.000/436.395/437.385
ZACube-1 31 Mar 23:53:06 23:56:02 18° 272° (W) 23:58:54 437.345
SWISSCUBE 31 Mar 23:56:18 23:57:45 11° 48° (NE) 23:59:22 437.505
VELOX 1 31 Mar 23:57:47 00:01:59 39° 263° (W) 00:06:11 145.980
BEESAT 31 Mar 23:58:54 00:00:14 11° 48° (NE) 00:01:45 436.000
CUBEBUG 2 01 Apr 00:03:45 00:04:54 11° 277° (W) 00:05:50 437.445
AISAT 01 Apr 00:03:53 00:07:58 34° 264° (W) 00:12:01 437.250
PCSat 01 Apr 00:04:08 00:09:29 59° 238° (WSW) 00:14:48 145.827
ISS 01 Apr 00:04:12 00:07:10 33° 156° (SSE) 00:10:09 145.825
UNISAT 6 01 Apr 00:04:20 00:08:50 54° 100° (E) 00:13:24 437.425
QB50P1 01 Apr 00:09:50 00:13:41 33° 96° (E) 00:17:32 145.935-145.965
DUCHIFAT 1 01 Apr 00:10:05 00:13:53 32° 95° (E) 00:17:43 145.980
TIGRISAT 01 Apr 00:13:15 00:17:48 63° 102° (ESE) 00:22:25 435.000
HUMSAT D 01 Apr 00:22:18 00:25:04 17° 272° (W) 00:27:45 437.325/437.525
QB50P2 01 Apr 00:25:31 00:29:38 47° 99° (E) 00:33:45 145.880/145.840
UKube-1 01 Apr 00:32:39 00:33:57 11° 276° (W) 00:35:02 .
50 SAT 01 Apr 00:36:45 00:39:18 16° 272° (W) 00:41:45 437.505
BUGSAT 1 01 Apr 00:38:10 00:42:03 44° 99° (E) 00:45:55 437.445
ESTCUBE 1 01 Apr 00:42:55 00:46:56 29° 266° (W) 00:50:55 437.505/2401.250
ITUPSAT 1 01 Apr 00:44:40 00:48:21 23° 58° (ENE) 00:52:09 437.325
ANTELSAT 01 Apr 00:45:05 00:49:39 70° 287° (WNW) 00:54:18 437.575/2403.000
SO-50 01 Apr 00:52:53 00:57:00 26° 17° (NNE) 01:01:11 436.795
POPSAT HIP 1 01 Apr 00:53:37 00:57:52 84° 104° (ESE) 01:02:07 437.405
NANOSAT C BR1 01 Apr 01:03:04 01:07:18 81° 287° (WNW) 01:11:33 145.865
TISAT 1 01 Apr 01:03:04 01:07:16 67° 257° (WSW) 01:11:28 437.305
POLYITAN 1 01 Apr 01:09:54 01:14:08 69° 288° (WNW) 01:18:22 437.675
RS-15 01 Apr 01:21:52 01:32:39 50° 14° (NNE) 01:43:56 29.354- 29.394
SPROUT 01 Apr 01:24:08 01:28:10 38° 263° (W) 01:32:11 437.525
CUBEBUG 1 01 Apr 01:28:37 01:30:51 13° 275° (W) 01:32:53 437.445
SWISSCUBE 01 Apr 01:30:01 01:34:40 52° 68° (ENE) 01:39:22 437.505
YUBILEINY 01 Apr 01:31:08 01:40:03 90° 79° (E) 01:48:52 435.215
BEESAT 01 Apr 01:32:29 01:37:07 51° 68° (ENE) 01:41:48 436.000
ISS 01 Apr 01:40:04 01:43:19 66° 175° (S) 01:46:33 145.825
UNISAT 6 01 Apr 01:41:36 01:45:23 26° 299° (WNW) 01:49:10 437.425
QB50P1 01 Apr 01:45:44 01:49:35 34° 295° (WNW) 01:53:24 145.935-145.965
DUCHIFAT 1 01 Apr 01:45:55 01:49:46 34° 295° (WNW) 01:53:34 145.980
PCSat 01 Apr 01:49:57 01:51:56 12° 257° (WSW) 01:53:40 145.827
TIGRISAT 01 Apr 01:50:39 01:54:13 23° 300° (WNW) 01:57:46 435.000
QB50P2 01 Apr 02:01:49 02:05:21 25° 298° (WNW) 02:08:50 145.880/145.840
Oscar 19 01 Apr 02:02:29 02:06:20 21° 88° (E) 02:10:18 437.125/150
BUGSAT 1 01 Apr 02:14:02 02:17:22 25° 298° (WNW) 02:20:38 437.445
ITUPSAT 1 01 Apr 02:21:03 02:25:53 68° 257° (WSW) 02:30:43 437.325
ANTELSAT 01 Apr 02:23:25 02:25:45 14° 307° (NW) 02:27:57 437.575/2403.000
POPSAT HIP 1 01 Apr 02:30:36 02:33:16 16° 303° (WNW) 02:35:49 437.405
KKS-1 01 Apr 02:32:02 02:36:10 40° 66° (ENE) 02:40:20 437.445
SO-50 01 Apr 02:33:31 02:38:26 62° 40° (NE) 02:43:21 436.795
NANOSAT C BR1 01 Apr 02:40:21 02:42:33 14° 305° (NW) 02:44:39 145.865
Gurwin Techsat 1B 01 Apr 02:41:21 02:44:03 14° 83° (E) 02:46:58 435.225
POLYITAN 1 01 Apr 02:47:35 02:49:22 12° 307° (NW) 02:51:01 437.675
STARS 01 Apr 02:57:09 03:01:19 45° 67° (ENE) 03:05:32 437.465
SWISSCUBE 01 Apr 03:08:44 03:12:50 27° 268° (W) 03:16:53 437.505
BEESAT 01 Apr 03:11:08 03:15:15 27° 268° (W) 03:19:19 436.000
ITAMSAT 1 01 Apr 03:14:02 03:18:29 29° 93° (E) 03:22:59 435.822/435.867
ISS 01 Apr 03:16:24 03:19:33 49° 196° (SSW) 03:22:42 145.825
YUBILEINY 01 Apr 03:28:55 03:35:53 26° 283° (WNW) 03:42:34 435.215
RS-15 01 Apr 03:35:13 03:46:37 84° 45° (NE) 03:58:34 29.354- 29.394
AIST 1 01 Apr 03:36:12 03:38:37 15° 83° (E) 03:41:10
AO-7 01 Apr 03:37:18 03:39:41 12° 75° (ENE) 03:42:40 29.400- 29.500
Oscar 19 01 Apr 03:41:05 03:46:17 72° 289° (WNW) 03:51:27 437.125/150
JAS-2 01 Apr 03:45:23 03:48:36 13° 72° (ENE) 03:52:10 435.910
GONETS M04 01 Apr 03:52:45 03:56:34 13° 32° (NNE) 04:00:43
O/OREOS (USA 219) 01 Apr 04:00:02 04:03:44 25° 105° (ESE) 04:07:30 437.305
ITUPSAT 1 01 Apr 04:03:14 04:04:49 11° 278° (W) 04:06:09 437.325
AUBIESAT-1 01 Apr 04:05:23 04:08:30 20° 48° (NE) 04:11:50 437.475
KKS-1 01 Apr 04:08:58 04:12:56 30° 266° (W) 04:16:51 437.445
SO-50 01 Apr 04:14:23 04:18:47 32° 240° (WSW) 04:23:07 436.795
Gurwin Techsat 1B 01 Apr 04:19:41 04:25:03 77° 103° (ESE) 04:30:23 435.225
MOZHAYETS 4 01 Apr 04:27:48 04:32:06 39° 66° (ENE) 04:36:28
HORYU 2 01 Apr 04:30:45 04:34:38 28° 93° (E) 04:38:34 437.375
M-CUBED/EXP-1 PRIME 01 Apr 04:31:28 04:35:17 31° 55° (NE) 04:39:23 437.505
STARS 01 Apr 04:34:17 04:38:01 26° 267° (W) 04:41:41 437.465
ISS 01 Apr 04:53:14 04:55:29 17° 214° (SW) 04:57:40 145.825
ITAMSAT 1 01 Apr 04:53:15 04:58:19 53° 293° (WNW) 05:03:21 435.822/435.867
STRAND 1 01 Apr 05:10:46 05:12:25 12° 46° (NE) 05:14:16 437.568
AIST 1 01 Apr 05:11:19 05:15:44 78° 281° (W) 05:20:09
Oscar 19 01 Apr 05:21:41 05:24:53 16° 309° (NW) 05:27:57 437.125/150
AO-7 01 Apr 05:26:56 05:34:58 50° 100° (E) 05:43:01 29.400- 29.500
JAS-2 01 Apr 05:28:07 05:35:46 54° 97° (E) 05:42:52 435.910
O/OREOS (USA 219) 01 Apr 05:38:21 05:42:53 56° 305° (NW) 05:47:27 437.305
AUBIESAT-1 01 Apr 05:38:27 05:42:44 86° 251° (WSW) 05:47:23 437.475
GONETS M04 01 Apr 05:48:41 05:56:48 39° 61° (ENE) 06:05:01
PRISM 01 Apr 05:56:10 05:59:31 24° 61° (ENE) 06:02:56 437.425
